Location: Domps
(45.6607°N, 1.7085°E)
Time: 19:18:00
(UTC+00:00)

Daily predictions for brighter satellites

Satellite Brightness Start Highest point End
(mag) Time Altitude Azimuth Time Altitude Azimuth Time Altitude Azimuth
Cosmos 1814 Rocket 4.2 19:32:46 10° NNW 19:38:00 75° WSW 19:43:08 10° SSE
SL-4 R/B 2.3 19:36:08 10° WNW 19:40:29 88° SSW 19:45:07 10° ESE
Cosmos 1805 Rocket 4.3 19:38:49 10° N 19:42:48 34° ENE 19:46:47 10° SE
X-37B 0.6 19:40:33 10° W 19:43:44 79° S 19:46:56 10° E
IRS-1A Rocket 4.4 19:45:19 10° SSE 19:51:03 76° ENE 19:56:55 10° NNW
Cosmos 1745 Rocket 4.3 19:45:50 10° N 19:51:50 48° ENE 19:57:45 10° SSE
SPOT 3 Rocket 4.1 19:49:37 10° SE 19:54:25 41° ENE 19:59:15 10° N
ERS-2 3.2 19:51:22 10° N 19:54:55 50° WNW 19:58:26 10° SSW
Cosmos 1844 4.0 19:51:02 10° S 19:56:27 45° ESE 20:01:50 10° NE
Resurs 1-3 3.6 19:52:10 10° SSE 19:56:30 71° ENE 20:00:54 10° N
Cosmos 1743 Rocket 3.5 19:52:39 10° N 19:57:01 86° E 20:01:22 10° S
Cosmos 968 Rocket 3.5 19:52:06 10° S 19:57:17 63° ESE 20:02:28 10° NNE
BREEZE-M DEB (TANK) 3.8 19:53:37 10° W 19:57:55 85° S 20:05:20 10° ESE
ATLAS 5 CENTAUR R/B 3.0 19:54:32 10° NNW 19:59:43 43° NE 20:05:41 10° ESE
BREEZE M DEB (TANK) 3.9 19:59:58 10° WSW 20:03:31 82° NNW 20:14:58 10° ENE
Cosmos 1486 Rocket 4.1 19:59:36 10° S 20:04:49 60° ESE 20:10:04 10° NNE
Intercosmos 25 Rocket 4.1 19:59:32 10° N 20:06:25 79° E 20:10:35 10° SSE
IGS 5A 3.9 20:04:31 11° SE 20:08:21 46° ENE 20:12:20 10° N
Cosmos 1500 Rocket 3.9 20:04:35 10° NNW 20:08:59 70° W 20:13:18 10° S
Cosmos 1833 Rocket 4.4 20:05:10 10° N 20:09:20 20° NE 20:13:29 10° E
Cosmos 2221 3.8 20:06:28 10° SSW 20:10:34 44° WNW 20:14:45 10° N
S3M 4.1 20:05:01 10° S 20:11:16 62° E 20:17:31 10° NNE
BREEZE-M R/B 1.8 20:09:16 10° SW 20:11:58 53° SSE 20:14:21 10° ENE
USA 186 4.2 20:11:12 10° SW 20:12:55 16° W 20:14:34 10° NW
Cosmos 1666 Rocket 4.3 20:12:50 10° N 20:16:56 36° ENE 20:19:58 16° SE
FALCON 9 DEB 4.2 20:15:18 10° WNW 20:18:00 29° SW 20:20:03 14° SSE
Cosmos 1933 3.5 20:17:46 10° S 20:21:42 53° E 20:25:38 10° NNE
FALCON 9 DEB 4.5 20:21:40 10° W 20:24:12 24° SW 20:26:04 14° S
USA 245 3.8 20:23:48 17° E 20:24:12 18° ENE 20:25:53 10° NNE
Cosmos 1242 Rocket 2.8 20:24:03 12° S 20:27:13 48° E 20:30:41 10° NNE
OBJECT-B 3.2 20:24:58 10° SSW 20:27:32 21° W 20:30:06 10° NW
Cosmos 1553 Rocket 4.3 20:23:51 10° SSW 20:29:56 69° W 20:36:10 10° N
Cosmos 1437 Rocket 3.2 20:27:21 10° SSW 20:31:11 64° WNW 20:35:06 10° N
BREEZE M DEB (TANK) 3.2 20:25:52 10° W 20:31:45 47° N 20:34:07 11° ENE
FALCON 9 DEB 4.3 20:30:26 10° WNW 20:33:05 27° SW 20:34:36 18° S
Resurs 01 Rocket 1.7 20:29:42 12° S 20:33:52 81° WSW 20:38:20 10° NNW
OE (NEXTSAT) 4.3 20:33:54 10° W 20:37:23 82° N 20:39:58 17° E
Spot 2 Rocket 4.0 20:34:12 19° SE 20:37:31 45° ENE 20:42:20 10° N
SJ 16-02 3.4 20:38:19 12° E 20:38:19 12° E 20:39:48 10° ENE
DELTA 2 R/B (1) 4.2 20:33:31 10° W 20:38:40 40° SSW 20:41:51 21° SE
Sich 1 3.1 20:34:58 10° N 20:39:18 80° W 20:43:01 14° S
COSMOS 2406 4.3 20:35:03 10° N 20:40:05 31° NE 20:43:43 16° ESE
Meteor 1-20 Rocket 4.2 20:36:44 10° NNW 20:42:24 87° W 20:47:10 14° S
Cosmos 2082 Rocket 4.0 20:38:31 10° N 20:42:33 20° NE 20:46:28 10° E
BREEZE-M DEB (TANK) 4.4 20:43:23 10° WSW 20:44:41 13° SSW 20:45:33 12° SSW
CZ-4C R/B 3.5 20:38:14 10° NNW 20:45:03 49° NE 20:51:18 17° ESE
Cosmos 1782 2.9 20:43:16 20° SSE 20:45:46 53° E 20:49:40 10° NNE
Cosmos 1500 4.1 20:42:29 10° N 20:45:55 33° ENE 20:47:10 26° ESE
ERS-1 Rocket 3.6 20:50:52 23° SE 20:53:29 42° ENE 20:58:12 10° N
SPOT 5 3.6 20:52:52 24° SE 20:55:28 43° ENE 21:00:24 10° N
Cosmos 1503 Rocket 4.0 20:50:27 10° SSW 20:55:37 88° WNW 21:00:52 10° NNE
Cosmos 1271 Rocket 4.4 21:00:22 19° E 21:00:22 19° E 21:03:04 10° NE
Cosmos 1151 Rocket 2.9 20:58:03 18° S 21:01:11 82° E 21:05:35 10° N
Cosmos 1777 Rocket 4.4 20:58:39 24° SSE 21:01:16 42° ESE 21:06:10 10° NE
USA 290 3.0 20:58:31 10° NNW 21:01:39 45° WSW 21:02:58 28° SSW
Terra 2.7 21:02:22 25° ESE 21:04:18 36° ENE 21:08:38 10° N
Cosmos 1602 3.8 21:00:30 10° NNW 21:04:21 73° W 21:06:20 27° S
Cosmos 2278 Rocket 2.8 21:05:44 27° SE 21:07:46 36° ESE 21:12:54 10° NE
USA 307 4.4 21:04:12 10° NW 21:08:06 33° NNE 21:11:25 13° ENE
CZ-2C R/B 4.1 21:08:24 10° N 21:12:50 62° WNW 21:17:18 10° SSW
Cosmos 1515 Rocket 3.7 21:17:35 39° SSE 21:18:56 56° E 21:23:15 10° NNE
SL-4 R/B 3.9 21:16:20 10° W 21:19:46 22° SW 21:21:08 19° SSW
SPOT 1/Viking Rocket 4.0 21:16:46 22° S 21:20:08 59° W 21:25:18 10° NNW
Cosmos 1844 Rocket 4.2 21:15:03 10° WSW 21:20:10 37° NW 21:25:21 10° NNE
X-37B 0.7 21:17:10 10° W 21:20:09 58° SSW 21:20:09 58° SSW
Cosmos 2084 3.3 21:17:53 22° SSW 21:20:26 63° SE 21:24:38 10° NE
USA 308 4.2 21:17:41 10° NW 21:21:40 36° NNE 21:24:24 18° ENE
SWARM C 4.4 21:19:09 10° N 21:22:29 84° E 21:22:52 67° SSE
ARIANE 5 R/B 2.6 21:20:39 34° S 21:22:29 74° WSW 21:26:51 10° NNW
SWARM A 4.1 21:19:16 10° N 21:22:35 88° ENE 21:23:01 66° S
Cosmos 1437 2.6 21:25:46 66° W 21:25:50 66° W 21:28:41 10° N
JB-3 4.2 21:22:35 10° NNE 21:26:32 86° WNW 21:27:56 38° SSW
Cosmos 1633 Rocket 3.8 21:24:54 10° NNW 21:29:08 48° W 21:31:23 25° SSW
Cosmos 1812 2.6 21:31:31 55° S 21:32:19 83° E 21:36:11 10° N
Cosmos 1470 Rocket 3.8 21:33:58 10° NNW 21:38:26 68° W 21:39:56 40° SSW
Cosmos 2184 Rocket 4.0 21:32:36 10° N 21:38:51 68° E 21:41:19 38° SSE
Cosmos 1328 Rocket 4.4 21:36:50 19° SSW 21:39:46 49° WNW 21:44:05 10° N
Meteor 1-5 Rocket 4.0 21:34:33 10° N 21:40:01 88° W 21:42:00 40° S
NOSS 3-4 (A) 4.2 21:36:03 10° NNW 21:42:50 56° NE 21:47:02 27° ESE
NOSS 3-4 (C) 4.2 21:36:10 10° NNW 21:42:57 56° NE 21:47:09 27° ESE
ATLAS 5 CENTAUR R/B 3.0 21:39:03 10° NW 21:44:30 45° WSW 21:47:13 30° S
CARTOSAT-1 4.3 21:44:08 32° SSW 21:45:38 46° W 21:49:49 10° NNW
Cosmos 2074 Rocket 3.9 21:40:30 10° N 21:46:51 81° E 21:49:23 39° SSE
NOSS 3-3 (A) 4.1 21:45:38 10° SW 21:51:23 71° NW 21:58:00 10° NE
NOSS 3-3 (C) 4.1 21:45:44 10° SW 21:51:30 71° NW 21:58:07 10° NE
Cosmos 1666 2.5 21:48:20 10° N 21:52:05 80° W 21:52:11 78° SW
Cosmos 1933 Rocket 3.6 21:48:40 10° NNW 21:52:59 72° W 21:53:49 55° SSW
Nadezhda 1 Rocket 4.1 21:51:52 41° SSE 21:53:53 58° E 22:00:01 10° NNE
Cosmos 1833 Rocket 2.6 21:48:18 10° NNW 21:53:59 81° WSW 21:55:42 47° SSE
ATLAS 2AS CENTAUR R/B 3.6 21:49:14 10° NNW 21:56:21 44° NE 22:00:32 22° E
Meteor 2-12 Rocket 4.4 21:51:04 10° N 21:57:09 71° E 21:59:02 45° SSE
Cosmos 1743 4.4 21:54:04 10° NNE 21:56:52 23° ENE 21:56:52 23° ENE
BREEZE-M DEB (TANK) 3.7 21:57:10 10° WNW 21:57:58 21° NW 21:57:58 21° NW
USA 215 4.3 21:56:05 10° E 22:02:06 41° NNE 22:08:07 10° NW
Cosmos 1538 Rocket 4.1 21:57:14 10° NNW 22:02:37 75° WSW 22:03:56 51° S
USA 305 3.3 21:59:42 10° NW 22:03:55 57° NNE 22:04:41 49° ENE
Iridium 4 Rocket 4.0 22:01:47 34° SSW 22:04:17 68° W 22:10:11 10° N
Cosmos 1610 Rocket 4.4 22:02:43 10° N 22:08:54 77° E 22:10:38 49° SSE
Cosmos 158 Rocket 3.6 22:09:59 10° NNW 22:14:54 88° ENE 22:15:27 70° SSE
SJ 16-02 1.5 22:15:15 58° SW 22:15:58 71° WNW 22:20:25 10° NNE
Cosmos 1733 Rocket 4.3 22:12:24 10° NNE 22:16:02 29° ENE 22:16:02 29° ENE
Cosmos 2228 Rocket 3.0 22:17:34 75° SW 22:17:52 81° W 22:22:21 10° N
Meteor 1-27 Rocket 3.7 22:18:38 53° S 22:20:04 83° E 22:26:00 10° NNE
Cosmos 1680 Rocket 3.8 22:15:18 10° NNW 22:20:33 56° ENE 22:21:27 49° ESE
Cosmos 2341 Rocket 4.4 22:15:19 10° N 22:21:35 53° ENE 22:23:08 43° ESE
USA 306 3.0 22:18:49 10° NW 22:23:05 73° NNE 22:23:05 73° NNE
COSMOS 2406 3.7 22:19:11 10° NW 22:24:35 47° WSW 22:25:47 41° SW
Cosmos 2082 Rocket 2.1 22:21:44 10° NNW 22:27:23 85° WSW 22:28:19 63° SSE
CZ-4C R/B 3.4 22:26:45 10° NW 22:33:54 53° WSW 22:36:28 40° SSW
Cosmos 1271 Rocket 4.0 22:35:28 34° W 22:35:56 36° WNW 22:39:40 10° N
Cosmos 2218 Rocket 4.4 22:34:44 10° N 22:40:48 48° ENE 22:42:06 43° ESE
Terra 3.2 22:41:15 26° WSW 22:42:05 28° W 22:46:11 10° NW
Meteor 1-11 Rocket 4.4 22:38:00 10° NNW 22:43:46 51° W 22:45:14 42° SW
Okean 1 4.4 22:46:34 37° NE 22:46:34 37° NE 22:49:19 10° NNE
USA 307 3.4 22:44:09 10° WNW 22:47:31 54° WNW 22:47:31 54° WNW
Cosmos 1340 Rocket 3.3 22:46:15 10° NNW 22:49:40 58° NW 22:49:40 58° NW
Cosmos 2278 Rocket 3.4 22:47:29 15° WSW 22:51:49 39° NW 22:57:06 10° NNE
Spot 4 3.7 22:53:27 86° E 22:53:28 86° E 22:58:23 10° NNW
Cosmos 923 Rocket 4.2 22:50:30 10° NNW 22:55:40 58° WSW 22:55:53 58° WSW
Cosmos 1862 Rocket 4.2 22:57:00 47° NE 22:57:00 47° NE 23:00:23 10° NNE
Cosmos 1544 4.5 22:52:46 10° NNW 22:55:12 35° NW 22:55:12 35° NW
Cosmos 1898 Rocket 3.3 22:57:39 82° SSE 22:57:51 86° ESE 23:03:12 10° NNE
Cosmos 1536 4.2 22:56:18 10° NNW 22:59:30 33° WNW 22:59:30 33° WNW
USA 308 3.9 22:57:38 10° WNW 23:00:30 40° WNW 23:00:30 40° WNW
Cosmos 2369 Rocket 3.3 23:03:27 29° E 23:03:27 29° E 23:07:31 10° NE
COBE Rocket 4.3 23:07:04 52° E 23:07:17 53° ENE 23:12:14 10° N
Meteor 2-9 Rocket 4.1 23:04:13 10° N 23:10:03 77° ENE 23:10:35 71° SE
SL-8 Rocket 3.9 23:04:11 10° N 23:10:33 88° W 23:11:34 66° S
Cosmos 1943 Rocket 2.1 23:11:55 67° ESE 23:11:55 67° ESE 23:17:24 10° NNE
Cosmos 1975 3.8 23:09:16 10° N 23:12:12 43° NNE 23:12:12 43° NNE
Cosmos 2084 Rocket 4.2 23:09:21 10° NNW 23:13:20 49° NE 23:13:20 49° NE
ALOS 2 2.9 23:16:05 65° N 23:16:05 65° N 23:19:54 10° N
DNEPR-1 R/B 4.1 23:19:56 70° E 23:19:56 70° E 23:24:44 10° NE
Cosmos 1707 Rocket 4.5 23:20:01 42° WNW 23:20:01 42° WNW 23:24:02 10° N
Meteor 2-4 Rocket 4.0 23:20:31 54° ESE 23:20:41 54° E 23:26:14 10° NNE
Cosmos 44 3.4 23:15:21 10° NW 23:20:48 89° W 23:20:48 89° W
Okean 1-7 4.2 23:30:15 35° NE 23:30:15 35° NE 23:33:15 10° NNE
Cosmos 372 Rocket 4.1 23:30:36 63° ENE 23:30:36 63° ENE 23:35:10 10° NNE
Meteor 1-18 Rocket 4.1 23:33:04 74° SW 23:33:29 80° W 23:39:08 10° N
NOSS 3-4 (A) 4.4 23:27:09 10° NW 23:33:43 40° WSW 23:34:28 39° SW
NOSS 3-4 (C) 4.4 23:27:15 10° NW 23:33:50 41° WSW 23:34:34 40° SW
Cosmos 1238 Rocket 4.1 23:29:57 10° NNW 23:36:05 53° W 23:36:39 51° WSW
SL-24 R/B - RUBIN 2 4.2 23:32:48 10° NW 23:37:29 57° W 23:37:29 57° W
SeaSat 1 3.0 23:34:16 10° NE 23:38:19 47° E 23:38:19 47° E
Cosmos 864 Rocket 4.4 23:33:09 10° NNW 23:39:16 69° W 23:39:57 63° SW
Cosmos 2242 Rocket 4.2 23:40:22 51° NE 23:40:22 51° NE 23:43:54 10° NNE
USA 215 3.2 23:42:20 44° ESE 23:44:41 86° NE 23:51:16 10° NW
Cosmos 2297 4.3 23:45:51 43° W 23:47:08 52° WNW 23:52:43 10° NNE
ATLAS 2AS CENTAUR R/B 2.9 23:40:27 10° NW 23:47:29 52° WSW 23:47:56 51° SW
Cosmos 2181 Rocket 4.5 23:52:11 43° WSW 23:53:26 49° WNW 23:59:23 10° N
